Tracking 19903 objects as of 16-Oct-2019
HD Live streaming from Space Station
objects crossing your sky now

TITAN 34D TRANSTAGE DEB

Track TITAN 34D TRANSTAGE DEB now!


NORAD ID: 22818
Int'l Code: 1988-077F
Perigee: 373.6 km
Apogee: 32,946.3 km
Inclination: 26.8 °
Period: 579.7 minutes
Semi major axis: 23030 km
RCS: Unknown
Launch date: September 2, 1988
Source: United States (US)
Launch site: AIR FORCE EASTERN TEST RANGE (AFETR)

Note: This is SATELLITE DEBRIS
aabbcc
Your satellite tracking list
Your tracking list is empty




NASA's NSSDC Master Catalog

Two Line Element Set (TLE):
1 22818U 88077F   19237.95601932  .00001275  00000-0  17721-2 0  9993
2 22818  26.8072 120.4077 7071523 269.9736  16.3743  2.48390787  1403
Source of the keplerian elements: AFSPC